EA2DUR Weather Reports


time (UTC)temp
F
wind
direction
speed
knots
gust
knots
rain 1hr
in
rain 24hr
in
rain mn
in
humidity
%
barometer
mb
20260506163038 51 26 6.1 12.2 0.00 0.00 0.00 88 947.9
20260506161520 52 41 5.2 8.7 0.00 0.00 0.00 87 947.8
20260506160022 52 316 5.2 9.6 0.00 0.00 0.00 86 947.9
20260506154518 53 22 5.2 8.7 0.00 0.00 0.00 88 948.0
20260506153017 51 18 7.8 11.3 0.00 0.00 0.00 89 947.9
20260506151517 51 56 7.0 10.4 0.00 0.00 0.00 90 948.1
20260506150016 50 37 3.5 9.6 0.00 0.00 0.00 91 948.1
20260506144515 51 333 3.5 7.8 0.00 0.00 0.00 91 948.3
20260506143016 50 55 3.5 9.6 0.00 0.00 0.00 91 948.4
20260506141515 50 16 7.8 12.2 0.00 0.00 0.00 91 948.5
20260506140014 51 340 7.0 14.8 0.00 0.00 0.00 88 948.5
20260506134513 53 347 6.1 11.3 0.00 0.00 0.00 82 948.4
20260506133012 54 63 2.6 5.2 0.00 0.00 0.00 79 948.3
20260506131514 54 290 1.7 6.1 0.00 0.00 0.00 81 948.2
20260506130010 52 25 0.9 4.3 0.00 0.00 0.00 88 948.3
20260506124509 51 13 1.7 5.2 0.00 0.00 0.00 88 948.4
20260506123010 51 11 2.6 7.8 0.00 0.00 0.00 87 948.4
20260506121508 52 9 3.5 8.7 0.00 0.00 0.00 84 948.3
20260506120007 53 360 2.6 8.7 0.00 0.00 0.00 81 948.2
20260506114509 53 338 3.5 7.8 0.00 0.00 0.00 80 948.1
20260506113007 54 292 4.3 7.8 0.00 0.00 0.00 80 948.1
20260506111507 54 346 4.3 6.1 0.00 0.00 0.00 80 948.3
20260506110003 53 333 3.5 7.8 0.00 0.00 0.00 83 948.3
20260506104603 52 13 3.5 7.0 0.00 0.00 0.00 83 948.3
20260506103059 52 351 2.6 7.0 0.00 0.00 0.00 82 948.3
20260506101605 52 46 1.7 4.3 0.00 0.00 0.00 81 948.3
20260506100057 52 312 0.9 4.3 0.00 0.00 0.00 79 948.3
20260506094621 52 298 1.7 5.2 0.00 0.00 0.00 83 948.2
20260506093054 51 17 0.9 2.6 0.00 0.00 0.00 85 948.3
20260506091550 50 132 2.6 4.3 0.00 0.00 0.00 86 948.1
20260506090049 51 111 0.9 4.3 0.00 0.00 0.00 86 948.2
20260506084548 50 104 1.7 6.1 0.00 0.00 0.00 89 948.1
20260506083042 49 102 2.6 6.1 0.00 0.00 0.00 93 948.1
20260506081539 47 115 1.7 3.5 0.00 0.00 0.00 94 948.2
20260506073041 46 138 4.3 7.0 0.00 0.00 0.00 94 948.0
20260506071534 46 188 2.6 6.1 0.00 0.00 0.00 96 947.8
20260506061532 44 172 1.7 3.5 0.00 0.00 0.00 97 947.7
20260506044520 44 105 0.9 1.7 0.00 0.00 0.00 96 947.4
20260506043015 44 208 1.7 4.3 0.00 0.00 0.00 97 947.4
20260506041518 44 195 0.0 3.5 0.00 0.00 0.00 97 947.2
20260506040037 44 128 0.0 2.6 0.00 0.00 0.00 97 947.2
20260506034513 44 121 0.9 4.3 0.00 0.00 0.00 96 947.2
20260506033013 44 115 1.7 3.5 0.00 0.00 0.00 96 947.1
20260506031526 45 154 0.9 3.5 0.00 0.00 0.00 96 947.3
20260506030012 45 121 0.9 2.6 0.00 0.00 0.00 96 947.2
20260506024518 46 252 0.0 1.7 0.00 0.00 0.00 96 947.3
20260506023011 45 178 0.0 1.7 0.00 0.00 0.00 96 947.3
20260506021510 45 171 0.9 3.5 0.00 0.00 0.00 96 947.3
20260506020006 45 132 1.7 2.6 0.00 0.00 0.00 96 947.3
20260506014510 45 143 0.0 1.7 0.00 0.00 0.00 96 947.4
20260506013005 45 137 0.9 2.6 0.00 0.00 0.00 96 947.5
20260506011503 45 162 2.6 3.5 0.00 0.00 0.00 97 947.6
20260506010003 45 186 0.9 3.5 0.00 0.00 0.00 97 947.7
20260506004601 45 138 0.9 2.6 0.00 0.00 0.00 97 948.0
20260506003100 44 126 0.9 2.6 0.00 0.00 0.00 97 948.1
20260506001558 45 133 1.7 2.6 0.00 0.00 0.00 97 948.2
20260506000100 44 187 0.9 3.5 0.00 0.00 0.00 97 948.2
20260505234601 44 154 1.7 2.6 0.00 0.00 0.00 97 948.1
20260505233108 44 159 0.9 3.5 0.00 0.00 0.00 97 948.2
20260505231555 43 96 0.9 1.7 0.00 0.00 0.00 97 948.2
20260505230050 43 86 0.9 2.6 0.00 0.00 0.00 96 948.2
20260505224549 43 45 0.9 1.7 0.00 0.00 0.00 96 948.3
20260505223052 43 109 1.7 2.6 0.00 0.00 0.00 96 948.3
20260505221549 43 103 0.9 2.6 0.00 0.00 0.00 95 948.3
20260505220043 44 113 0.0 1.7 0.00 0.00 0.00 95 948.4
20260505214548 45 105 1.7 2.6 0.00 0.00 0.00 95 948.2
20260505213035 46 94 0.0 2.6 0.00 0.00 0.00 94 948.4
20260505211530 46 313 1.7 4.3 0.00 0.00 0.00 95 948.5
20260505210028 46 355 2.6 4.3 0.00 0.00 0.00 95 948.5
20260505204526 46 35 3.5 4.3 0.00 0.00 0.00 95 948.4
20260505203017 46 39 2.6 4.3 0.00 0.00 0.00 95 948.4
20260505201512 46 40 3.5 5.2 0.00 0.00 0.00 94 948.2
20260505200013 46 15 2.6 6.1 0.00 0.00 0.00 94 948.1
20260505194505 46 5 1.7 6.1 0.00 0.00 0.00 94 947.9
20260505193059 47 360 2.6 4.3 0.00 0.00 0.00 93 947.9
20260505191555 47 36 1.7 4.3 0.00 0.00 0.00 92 947.7
20260505190050 47 324 4.3 9.6 0.00 0.00 0.00 92 947.5
20260505184546 47 329 6.1 9.6 0.00 0.00 0.00 94 947.5
20260505183042 48 342 0.9 3.5 0.00 0.00 0.00 94 947.6
20260505181542 48 340 1.7 4.3 0.00 0.00 0.00 94 947.5
20260505180037 47 58 3.5 5.2 0.00 0.00 0.00 94 947.4
20260505174537 47 42 1.7 4.3 0.00 0.00 0.00 93 947.4
20260505173023 47 54 1.7 3.5 0.00 0.00 0.00 92 947.5
20260505171523 47 26 0.9 5.2 0.00 0.00 0.00 91 947.6
20260505170018 50 46 7.0 13.0 0.00 0.00 0.00 88 947.6
20260505164510 50 17 0.9 2.6 0.00 0.00 0.00 86 947.5